Wind_Speed
3 2 1 1 1 1 1 1 2 2 2 3 4 5 5 6 7 7 9 9 10 11 11 11 14 13 14 14 13 14 13 11 5 7 16 21 27 30 31 31 31 31 32
6 5 4 4 3 2 2 2 3 3 3 3 5 6 7 7 7 8 10 10 11 11 11 12 14 14 16 15 15 15 13 10 7 10 16 18 23 21 29 27 30 27 32
10 9 7 6 5 4 4 5 5 5 5 6 6 7 8 8 9 9 9 10 11 11 12 12 13 14 17 17 15 16 14 11 9 10 12 17 20 21 28 26 24 28 31
14 12 10 8 7 7 6 6 6 7 7 8 9 10 9 8 8 8 8 9 9 9 9 10 12 14 17 16 13 15 14 13 13 13 14 16 15 24 19 25 31 32 36
18 15 12 10 9 9 9 9 9 10 10 10 10 11 10 9 6 7 8 8 7 8 8 8 11 12 14 13 13 13 13 14 14 16 15 19 20 27 26 26 27 32 33
20 17 14 13 12 12 12 12 12 13 12 11 10 11 11 9 7 8 6 7 7 7 7 7 8 12 12 10 11 11 14 15 15 16 15 17 18 21 23 25 25 24 13
21 19 18 17 16 15 14 13 14 13 12 12 12 11 10 9 8 8 7 7 7 7 8 8 7 9 12 10 10 11 12 13 14 12 13 14 18 21 23 25 23 21 21
24 23 21 19 18 17 17 16 15 13 14 14 13 10 9 10 7 7 6 6 6 7 7 7 7 8 12 13 11 12 14 12 14 13 11 12 14 16 17 17 20 24 27
25 24 23 22 22 21 20 18 16 17 16 12 10 11 8 8 8 5 5 5 6 6 6 9 9 9 12 13 11 12 15 13 13 13 12 11 14 15 18 21 26 25 13
23 24 23 23 22 22 21 20 19 16 14 13 12 9 9 11 8 7 4 3 4 2 3 4 10 10 11 11 10 12 16 16 17 18 16 16 18 19 19 18 17 18 16
22 23 23 22 21 20 20 20 19 17 17 14 11 9 8 8 8 7 5 2 3 4 3 4 7 7 8 9 9 11 12 12 14 15 16 19 21 23 23 21 18 16 17
21 22 22 21 21 21 22 22 21 20 18 15 12 11 9 8 5 6 6 6 4 3 4 3 4 4 6 7 8 7 9 11 13 16 19 22 24 24 24 22 21 20 16
23 23 22 22 22 23 24 24 22 20 19 16 14 13 12 10 7 6 5 3 5 3 3 4 3 4 4 4 7 8 10 13 15 18 20 21 21 22 22 24 23 25 23
26 25 24 24 23 23 24 24 23 22 20 18 16 16 14 11 8 4 2 2 4 2 1 1 1 3 5 6 6 9 11 13 15 17 18 19 21 24 26 26 26 30 26
26 26 26 25 25 24 23 23 22 19 18 18 17 17 17 13 7 3 1 0 2 3 2 2 3 4 4 5 6 8 10 12 15 16 17 20 22 24 26 26 26 27 25
26 25 26 25 25 25 22 17 13 12 13 12 12 14 14 10 6 6 7 4 2 4 3 4 5 5 6 7 9 10 11 13 14 15 16 18 21 23 25 26 26 26 26
26 25 26 28 28 27 25 24 22 15 11 12 13 11 11 9 7 7 6 5 5 5 6 6 6 6 7 7 9 11 13 13 14 14 15 16 19 21 23 25 26 27 27
26 29 30 30 30 28 28 27 27 27 24 20 14 12 9 8 8 8 8 9 10 8 8 8 8 8 8 9 10 12 12 12 13 13 14 15 18 21 23 24 25 26 28
28 28 30 30 29 28 27 26 25 22 20 20 17 16 15 9 9 10 11 12 9 9 9 10 10 10 10 11 11 12 13 13 13 14 14 15 17 18 20 22 23 26 28
28 27 27 28 28 27 27 27 26 22 20 20 20 18 17 17 16 17 16 14 12 10 10 11 11 12 12 13 14 14 15 13 13 13 13 13 15 16 19 21 22 25 27
27 26 27 28 29 28 28 28 26 23 22 21 19 17 17 18 17 17 16 15 13 12 12 13 13 14 14 14 15 16 17 16 14 14 14 14 15 16 17 20 22 24 27
29 28 29 29 28 26 26 24 23 22 20 20 18 17 15 18 17 17 15 14 14 15 14 16 16 16 15 16 15 17 18 18 16 15 16 14 14 15 17 20 22 24 27
30 30 29 27 26 25 24 22 22 22 21 19 18 18 18 19 19 18 17 15 15 15 16 18 18 18 16 16 16 17 18 17 16 16 17 16 15 15 16 19 21 24 27
31 30 29 28 27 26 24 24 24 22 21 20 19 19 19 18 18 18 17 15 16 17 17 18 19 19 18 17 17 17 18 17 16 16 17 16 16 15 17 19 21 24 26
30 30 29 29 28 27 26 25 24 23 23 22 21 20 18 18 18 18 17 17 18 19 18 19 19 19 19 19 18 17 16 16 16 15 15 16 15 15 17 19 21 23 26
31 31 30 28 28 27 26 26 26 25 24 23 21 20 18 18 18 18 18 18 19 19 20 19 19 19 19 19 18 17 16 16 16 14 13 15 16 17 18 19 21 23 26
Wind_Direction
240 240 221 227 229 216 191 134 120 124 103 82 76 81 90 93 94 95 87 84 80 77 74 66 59 46 46 41 38 31 33 25 329 300 323 336 343 345 350 353 354 354 354
227 223 223 226 221 211 202 169 159 154 132 102 91 92 90 90 89 87 91 86 82 75 68 67 58 40 35 29 22 22 18 15 2 322 322 331 335 346 344 349 350 346 346
224 222 220 220 218 209 198 182 166 155 133 112 96 91 91 88 87 86 88 85 79 71 62 52 55 46 35 22 12 15 7 4 358 334 323 329 335 342 346 345 344 342 343
223 220 217 216 209 199 187 173 165 155 141 122 102 91 89 93 93 93 87 80 76 72 61 52 50 45 32 21 8 10 3 1 354 349 343 339 344 345 346 345 342 342 338
220 215 211 205 199 191 184 177 168 159 145 131 116 96 83 75 77 102 98 90 73 72 69 53 46 45 38 24 13 11 5 6 5 356 353 349 350 351 351 338 333 334 343
214 209 204 199 193 189 182 176 171 165 156 148 133 117 97 80 91 91 107 101 98 89 76 59 42 31 27 27 29 32 26 20 13 4 352 349 341 340 337 336 334 346 340
211 206 201 196 191 187 182 176 171 166 160 146 130 119 100 86 84 95 95 100 95 82 71 56 48 32 22 14 28 28 30 30 24 6 351 346 334 339 337 337 335 329 314
207 203 199 193 189 185 182 180 176 174 167 155 139 123 108 78 76 98 103 98 94 80 77 65 53 37 26 15 20 17 19 16 16 5 356 344 340 340 341 330 327 324 331
204 201 198 194 188 186 186 183 181 174 171 164 160 149 131 90 62 88 103 101 98 86 80 69 50 38 26 17 19 9 9 10 12 6 4 1 357 358 355 348 358 351 337
204 202 200 196 195 192 191 185 181 178 174 172 167 164 140 111 77 68 90 101 117 114 84 76 47 30 27 21 18 7 6 2 0 1 9 12 11 12 10 9 355 349 346
203 199 197 198 196 196 189 185 180 175 173 170 163 164 153 128 90 70 65 106 147 143 96 67 62 30 30 23 22 13 12 354 3 5 10 13 12 14 13 11 4 351 337
195 192 193 194 193 191 187 183 182 180 175 167 160 162 156 152 124 84 82 68 96 107 87 58 78 38 33 34 22 15 17 8 9 11 16 14 10 10 9 5 3 356 346
189 188 189 191 192 190 189 183 177 182 177 170 172 168 168 168 147 111 89 92 51 80 110 83 73 46 0 2 28 19 4 12 14 16 15 9 6 4 3 3 5 4 2
186 184 186 190 190 189 188 186 184 184 184 183 181 180 171 165 170 166 164 247 318 234 187 215 9 349 352 353 353 6 15 16 16 13 9 4 3 4 7 4 1 4 358
189 186 185 189 186 184 187 187 191 196 201 193 196 191 176 168 168 184 247 186 302 188 231 283 298 309 335 354 6 6 10 10 11 10 6 2 2 2 2 3 3 2 352
182 181 181 178 181 184 177 169 185 190 188 193 197 193 172 158 150 169 173 169 182 273 297 290 292 315 332 344 353 1 6 6 7 4 2 359 357 358 356 358 0 359 350
184 179 178 183 183 180 178 169 152 157 161 157 158 162 182 183 177 186 192 186 194 258 288 287 297 308 320 332 341 348 353 357 356 354 354 354 351 352 355 355 355 355 349
191 188 186 188 188 186 184 179 171 166 166 164 170 184 193 186 194 198 201 220 229 280 281 288 296 303 313 323 329 333 340 343 344 348 350 352 349 347 350 352 351 348 347
192 190 195 193 191 190 187 184 183 184 184 187 190 194 195 199 200 210 215 238 260 273 280 287 296 304 311 315 317 321 328 335 338 340 344 345 345 342 345 347 346 346 347
196 198 192 189 189 189 189 189 191 195 199 207 215 222 221 222 219 223 236 255 268 277 281 287 296 302 307 309 311 314 319 326 329 330 333 337 339 338 340 341 342 340 343
190 190 191 191 191 191 193 197 202 207 216 221 227 228 231 235 240 241 245 258 269 278 284 288 293 298 300 301 305 307 312 320 326 326 325 330 332 334 336 338 338 339 341
189 189 190 192 192 195 200 204 208 213 218 222 223 224 220 235 241 248 256 265 272 278 283 286 289 291 292 293 296 299 305 312 321 317 317 322 325 328 329 334 338 338 340
191 191 192 194 197 199 200 205 211 216 220 223 225 227 230 238 247 254 261 267 270 275 279 282 286 289 291 290 290 293 296 306 312 310 313 315 319 325 326 330 334 335 337
194 193 193 196 198 202 206 210 215 220 224 228 229 233 238 245 252 259 265 269 271 275 276 279 284 288 289 288 289 290 293 299 302 307 306 307 312 319 321 326 329 331 331
195 197 199 200 202 207 211 216 221 224 228 232 236 241 247 253 257 263 269 270 271 273 275 279 282 284 285 288 287 288 288 289 297 303 303 302 305 309 314 318 322 325 328
199 202 205 207 211 215 218 222 226 229 233 237 242 248 254 258 264 268 271 272 274 276 278 278 280 282 283 283 285 286 287 288 291 293 294 297 301 304 308 312 316 319 323
Height
831 831 833 834 835 836 836 835 835 837 839 839 838 838 838 838 838 837 838 838 838 840 841 842 843 843 841 840 839 839 838 838 838 834 831 828 823 819 813 811 806 803 798
830 830 832 833 834 834 835 834 836 837 839 839 839 839 839 839 839 839 838 840 840 842 843 842 842 842 845 844 841 839 838 837 836 834 832 829 825 821 816 810 806 802 796
827 828 829 831 832 833 834 835 836 838 839 840 841 841 840 841 841 841 842 842 842 844 844 847 844 842 842 845 844 841 839 837 835 833 830 828 824 819 813 809 804 798 795
823 825 827 829 831 833 834 835 837 838 839 840 841 841 840 840 841 842 844 843 844 845 846 847 846 845 843 844 845 842 840 837 834 832 830 826 823 818 813 806 798 794 788
819 822 825 828 830 832 833 835 836 838 839 840 840 840 841 841 843 843 842 843 847 847 848 849 848 846 845 846 845 844 842 837 834 832 830 827 823 817 813 808 802 793 784
817 820 823 826 829 831 832 834 836 837 838 839 839 839 840 841 843 842 843 844 845 847 848 849 848 846 847 846 845 843 841 838 836 835 834 830 827 824 818 812 805 796 788
813 816 819 822 825 829 832 834 836 838 839 840 840 841 841 842 843 843 844 844 846 847 847 849 848 849 849 846 844 840 839 839 839 838 836 833 830 825 820 812 808 804 798
811 813 817 820 824 828 831 833 835 837 839 840 841 842 843 843 844 845 844 845 846 845 846 848 848 848 848 846 844 841 839 839 839 838 835 834 830 826 821 816 809 801 792
807 811 814 817 820 824 827 829 833 835 838 841 843 843 842 844 845 846 846 846 848 848 848 848 850 849 849 846 843 841 840 840 839 837 835 832 828 824 820 812 805 800 790
805 809 814 816 819 822 825 827 830 833 838 840 842 844 843 845 846 846 847 846 847 850 849 849 850 851 850 848 845 842 840 839 837 834 832 829 826 822 818 814 811 806 802
802 806 810 814 817 821 825 827 830 831 836 840 841 845 846 847 848 848 848 847 846 847 849 849 850 851 850 849 846 844 842 840 838 835 832 828 825 821 818 814 811 808 804
800 803 808 813 815 819 823 826 828 830 835 838 840 844 846 847 848 848 849 848 847 847 848 850 851 851 848 848 846 845 841 839 837 834 830 827 824 822 819 815 811 807 804
797 801 806 811 814 817 820 823 826 829 833 836 840 842 844 846 847 848 849 850 848 848 849 850 850 849 847 846 845 843 840 838 835 832 830 828 825 823 819 814 810 806 801
792 796 802 808 812 815 818 821 823 827 830 834 837 840 842 844 846 846 847 848 848 848 848 848 848 847 846 845 844 842 839 836 834 832 829 827 824 821 817 813 807 802 797
790 792 798 805 809 812 816 818 822 825 828 830 834 837 839 842 844 845 846 847 847 847 847 847 847 847 846 845 843 842 839 836 833 831 828 825 822 819 816 812 807 802 798
786 791 796 801 806 811 815 818 822 825 828 830 833 836 839 841 843 845 847 847 848 845 845 846 845 845 844 842 841 839 837 835 832 829 827 824 821 818 815 811 807 803 798
783 788 793 797 803 807 812 815 819 825 828 830 833 835 838 840 842 845 846 846 846 844 843 843 843 843 842 840 838 837 834 833 831 828 826 823 820 817 814 810 806 802 796
780 784 789 795 800 804 809 812 816 818 822 827 831 834 837 838 840 842 843 841 841 840 840 840 840 840 839 838 836 834 832 831 829 827 824 822 819 815 812 809 805 801 796
776 781 786 792 797 801 807 811 814 818 821 824 827 830 832 835 837 839 839 837 837 837 837 837 837 836 835 834 833 832 830 828 825 823 822 820 817 814 811 808 805 800 796
773 779 785 790 795 799 804 808 812 815 818 821 823 826 828 830 831 832 833 833 833 833 833 833 833 832 831 830 830 828 826 825 823 821 819 817 815 813 810 807 803 799 795
771 777 782 787 791 795 799 804 808 811 814 816 819 822 824 825 826 827 828 828 828 829 829 828 828 828 828 827 826 825 823 822 820 818 816 814 812 810 808 805 802 798 793
769 774 779 784 789 793 797 801 805 807 810 813 815 817 820 821 822 822 822 823 823 823 824 823 823 823 823 822 821 820 819 817 816 814 812 811 809 808 805 803 800 796 791
766 772 777 782 786 791 795 798 801 804 807 809 811 813 814 815 816 816 817 818 818 819 819 818 818 817 818 817 816 815 814 813 812 811 809 807 806 804 803 800 797 794 790
764 769 773 778 783 787 791 794 797 800 802 804 806 808 809 809 810 810 811 812 812 812 812 812 812 811 812 811 811 810 809 809 808 807 805 803 802 801 799 797 795 792 789
761 766 770 773 777 781 785 789 792 794 797 798 800 801 803 804 804 805 805 805 805 806 807 807 806 806 805 805 804 804 803 803 802 802 801 800 799 798 796 794 793 790 786
757 762 766 770 773 777 780 783 785 788 789 791 793 795 797 797 798 798 798 799 799 799 799 799 799 799 799 798 799 798 797 797 797 798 797 797 796 794 793 791 789 787 783